Retour au catalogue

DELTA 1 DEB

ActifSSO
NORAD 42565·DEBRIS·🇺🇸 United States

Lancé Jul 23, 1972 depuis Vandenberg Space Force Base

Loading…

Prochains Passages (prochaines 24 heures)

TLE

VieillissantSource: Space-Track

Époque: Sep 10, 2026, 15:59 UTC

1 42565U 72058JY  26253.66632527  .00000321  00000-0  82456-4 0  9994
2 42565  97.8854  44.4323 0034710 275.0277  84.6960 14.55938969678902

Suivez DELTA 1 DEB en temps réel avec AllMySat

Download on the App Store